STARLINK-11417, 62983

Orbit data source: Space-Track

STARLINK-11417, 62983 is a payload satellite owned by SpaceX/Seattle (US) in LEO that was launched on Tue, 11 Feb 2025 UTC via an FALCON 9 launch vehicle from the Air Force Eastern Test Range (AFETR). Payload-class satellites include a variety of spacecraft equipped with specific instruments for various scientific and technological missions. These include communications satellites like Starlink; space stations such as the ISS; scientific satellites like the Hubble; Earth observation satellites from companies like Planet Labs, Umbra, and HawkEye 360; GPS; miniature CubeSats for education and research; and military/defense satellites.

Loading next visibility...
Identifier
62983, 2025-031C
Orbit
LEO
Country
Flag of USUS
Related business
Manufacturer
SpaceX/Seattle
Mission
Operational Commercial Communications
Bus & Motor
STARLINK V2MD, Unknown motor
Mass
960 kg wet, ~910 kg dry
Launch date (UTC)
2025-02-11 (1 year ago)
Launch vehicle
FALCON 9
Launch site
Air Force Eastern Test Range (AFETR)
Object type
Payload
Rocket body
Debris
Shape & HBR
Box + 2 Pan, 18.1 m
Radar Cross Section
36.964 m², Large (>1 m²)

Expand to show TLE details & history
Last TLE update: 17 hours ago

TLE from 17 hours ago
0 STARLINK-11417
1 62983U 25031C   26171.15874111  .00154552  00000-0  11820-2 0  9990
2 62983  43.0013 104.2119 0002322 251.1925 108.8691 15.70912270 78858
Epoch: 2026-06-20T03:48Z
TLE epoch observation values (Epoch: 2026-06-20T03:48:35.231Z)
Latitude
-0.00003°
Longitude
138.6877°
Altitude
356.566 km
Speed
7.697 km/s
True Right ascension
06h 56m 50s
True Declination
0° 00' 00"
Sunlit
Object was in daylight at epoch
Visualization orbit readout
Latitude
Unknown
Longitude
Unknown
Altitude
Unknown
Speed
Unknown
Apparent Right ascension
Unknown
Apparent Declination
Unknown
Sunlit
N/A
Visualization observer readout
Local Sidereal Time
07:15:05
Azimuth
Unknown
Elevation
Unknown
Doppler factor
Unknown
Orbital elements
Apogee altitude
359.834 km
Perigee altitude
356.706 km
Semi-major axis
6,736.407 km
Eccentricity
0.00023
Inclination
43.0013°
RAAN
104.2119°
Arg. of periapsis
251.1925°
True anomaly
108.89428°
Mean anomaly
108.8691°
Eccentric anomaly
108.88169°
Mean motion
3.92555 °/min
Orbital period
91.71 mins
BSTAR
0.001182
Loading maneuver chart data...
Computing Atmospheric mass density...
Loading historical data...
Loading historical data...
Loading historical data...
Loading historical data...
Loading historical data...
Loading historical data...
Loading historical data...

Documentation

Showing up to 5 results
|